Theta_e
313 316 318 322 326 326 329 332 333 335 335 339 337 337 351 353 352 357 342 354 349 347 346 347 345 343 343 340 337 335 335 331 332 333 332 334 331 330 326 331 335 336 337 337 337 330 327 323 328
312 313 324 323 325 330 331 331 332 333 337 337 337 337 355 352 342 345 349 356 348 346 346 347 346 345 345 344 340 337 337 331 332 333 332 333 331 330 331 333 335 335 337 337 333 325 325 324 328
308 316 321 322 322 327 330 331 332 332 338 338 337 336 357 356 346 348 350 355 348 346 345 346 346 346 346 346 345 339 339 333 332 334 332 334 334 336 337 336 337 336 338 337 332 324 326 326 328
314 315 319 323 325 326 328 330 331 333 337 338 338 345 356 355 352 355 355 354 348 347 345 344 344 344 345 346 346 342 341 335 332 335 333 335 336 339 341 341 341 340 338 328 324 324 327 327 328
315 311 318 323 325 326 327 329 330 331 334 338 338 336 356 350 351 356 356 353 349 353 348 344 343 343 343 344 346 345 343 339 333 335 334 336 336 337 339 343 342 341 330 323 321 324 328 328 330
311 311 313 319 322 326 327 328 329 329 334 335 336 336 356 350 348 355 354 353 349 354 351 345 344 343 341 343 346 346 345 341 333 336 336 336 337 336 336 338 339 331 327 324 322 324 328 329 330
312 311 313 313 316 321 326 326 328 327 329 336 334 341 354 349 344 349 352 351 353 354 349 347 344 342 343 343 345 346 346 343 334 337 337 337 336 336 336 337 333 329 330 328 322 322 325 327 329
312 311 313 315 316 316 319 321 325 326 329 330 333 339 360 350 347 346 351 355 355 353 346 345 344 343 345 347 347 346 346 343 336 337 339 338 337 337 337 337 333 330 330 328 324 321 323 323 324
312 312 313 314 316 317 317 319 321 325 328 332 333 354 355 350 348 347 346 348 353 352 348 346 346 345 346 347 348 347 347 344 339 339 342 340 337 336 337 336 333 329 330 327 324 321 321 321 321
310 312 313 314 315 315 316 316 318 321 332 330 333 356 354 351 349 348 342 347 349 351 349 345 345 345 346 348 348 347 347 345 343 343 344 340 336 334 335 334 333 331 330 329 326 324 322 321 320
310 312 314 315 315 316 316 316 317 318 320 328 328 352 351 347 349 346 342 348 342 348 349 347 346 345 348 349 345 346 346 345 344 344 343 338 335 337 335 335 333 335 337 335 330 328 326 324 324
310 312 314 315 316 316 316 316 318 317 318 320 326 344 345 344 344 344 343 337 342 343 345 348 346 343 344 345 342 342 343 343 343 342 338 334 335 343 342 341 340 338 338 337 332 328 330 336 335
311 311 314 315 316 315 315 316 316 316 317 319 331 339 341 340 339 337 338 338 342 340 342 347 345 343 342 344 343 337 340 341 340 340 340 337 337 341 343 340 341 343 342 340 335 335 336 339 342
311 312 313 314 314 315 316 316 315 316 316 320 327 333 339 338 338 336 336 338 340 339 339 346 346 346 346 348 344 340 341 343 341 340 340 340 337 342 346 342 341 344 345 342 340 340 340 340 344
311 311 312 313 314 314 315 314 315 316 316 318 321 324 331 342 342 342 342 342 337 334 336 330 347 348 349 352 353 344 344 346 345 345 344 343 339 340 345 343 342 345 349 345 345 341 344 345 348
314 311 310 311 314 315 315 315 315 315 315 316 320 321 331 331 334 341 338 332 331 331 331 331 331 346 350 349 350 351 348 349 347 347 346 346 345 341 348 350 348 347 347 347 346 349 349 349 348
313 313 311 312 313 314 315 315 315 315 316 315 315 316 318 328 330 333 333 332 330 331 330 330 338 341 349 347 345 348 346 343 349 351 350 348 348 348 350 352 351 350 351 350 350 345 344 346 346
314 312 312 312 313 313 312 315 315 315 316 315 316 316 315 316 328 332 331 332 332 330 325 331 338 338 337 337 338 338 333 336 341 350 352 352 350 350 350 351 350 349 351 349 347 340 333 342 346
315 314 313 314 315 313 313 313 314 314 314 314 314 315 316 315 318 332 332 331 332 329 326 328 333 335 336 336 336 333 336 332 339 353 352 354 353 352 351 350 349 350 351 349 347 346 347 347 346
314 315 314 315 316 314 314 314 315 314 314 314 314 314 314 316 318 331 332 333 330 325 327 331 336 338 338 342 338 336 336 335 336 349 351 354 353 351 346 337 342 335 342 348 344 344 345 343 340
314 314 315 315 317 319 318 317 318 317 316 315 314 314 314 315 316 320 333 331 330 328 328 331 336 344 343 338 336 334 331 332 326 346 353 352 347 347 342 337 344 346 348 345 345 342 346 340 334
314 315 316 316 316 317 318 317 318 319 317 317 315 313 314 315 316 320 330 329 331 329 330 328 325 328 342 346 340 335 339 346 347 349 350 348 349 346 338 348 347 345 347 348 344 347 343 338 335
315 316 315 316 315 318 317 316 316 319 321 321 325 323 322 314 315 321 331 331 330 330 331 327 330 338 338 336 344 349 348 346 347 348 345 342 348 331 345 349 350 349 349 340 336 335 338 340 339
315 315 315 314 314 316 316 317 316 317 319 326 328 322 324 322 325 326 329 330 327 329 331 336 339 340 342 350 352 349 347 344 341 347 347 348 347 349 347 348 350 348 336 334 332 331 333 332 333
314 314 315 316 316 317 317 318 317 325 328 329 329 324 323 323 324 324 325 326 329 331 335 330 335 346 345 342 341 336 336 337 334 333 333 334 335 335 336 336 337 336 335 333 332 332 332 333 333
314 314 314 318 320 319 320 320 318 328 328 328 326 326 327 323 323 323 327 328 329 330 333 334 332 329 328 327 327 325 325 325 325 324 324 324 324 325 324 325 327 329 330 332 332 332 334 336 337
315 315 314 316 323 323 322 329 328 326 326 325 327 327 327 328 329 329 327 327 327 326 325 325 324 323 324 323 321 320 320 321 321 321 321 321 321 320 320 319 319 320 320 321 321 322 324 326 330
315 315 315 315 325 325 322 328 332 328 326 325 327 327 326 325 325 325 325 325 326 326 324 324 323 321 319 319 319 318 317 317 317 316 317 317 317 316 315 316 317 317 317 317 318 319 320 321 322
315 315 316 321 325 324 327 336 331 334 333 328 328 327 323 321 321 321 321 322 321 321 321 320 320 317 316 316 316 316 316 316 315 316 316 316 316 315 315 315 315 315 316 316 316 316 317 317 317
316 316 321 326 330 332 328 331 328 329 327 327 331 328 321 319 318 318 317 319 318 317 317 316 315 314 314 313 314 313 314 314 314 314 314 314 314 315 315 315 314 314 314 313 313 313 313 313 314
Wind_Speed
15 16 16 7 2 1 6 9 11 19 18 7 5 3 7 6 7 9 20 18 34 38 33 32 32 29 27 24 24 23 22 22 21 20 21 21 22 22 22 21 19 17 15 12 11 10 11 12 12
14 11 7 3 2 3 6 16 17 20 12 6 4 2 5 4 5 5 11 33 39 38 35 34 32 30 29 26 24 24 22 23 22 20 21 21 22 22 21 19 17 16 13 11 10 10 10 11 11
10 4 1 4 4 8 6 17 17 12 7 11 3 4 8 13 13 12 19 35 42 39 34 32 30 28 25 25 24 23 23 23 23 21 21 21 21 21 20 19 17 15 13 10 9 10 10 9 9
5 1 4 2 9 13 19 21 14 21 7 11 8 3 5 3 21 28 41 36 41 37 34 33 28 26 25 23 23 22 22 23 23 21 21 21 21 20 19 18 16 14 12 10 9 10 10 9 8
7 2 4 5 11 14 18 19 16 13 11 4 9 5 10 10 23 47 42 38 38 31 32 33 30 26 23 22 23 23 23 22 23 21 20 20 20 19 18 17 15 13 11 10 10 11 10 9 7
2 3 2 12 15 14 17 19 17 10 11 14 6 6 6 20 20 33 39 36 36 34 31 33 30 27 25 23 23 24 24 22 23 21 20 19 19 19 18 16 14 12 11 10 10 10 10 9 7
5 2 6 8 12 15 21 20 16 8 11 13 4 5 2 14 27 18 22 29 32 28 31 29 28 27 25 23 23 25 24 23 23 21 19 18 18 18 18 16 14 13 11 11 10 10 10 9 8
5 3 8 10 13 19 18 19 13 10 7 13 4 4 2 2 18 26 27 30 32 25 30 30 28 26 24 24 24 25 24 22 21 21 19 17 16 16 17 16 14 13 12 11 11 10 10 10 10
4 9 13 18 15 13 12 14 16 12 16 5 3 6 14 17 19 27 34 16 15 24 27 24 24 23 24 24 24 24 23 23 21 20 19 18 17 17 18 17 15 14 13 12 12 11 11 11 10
7 8 19 10 13 14 14 14 14 12 7 13 13 12 18 16 28 21 16 31 10 16 26 24 22 23 21 20 23 24 23 24 23 23 22 20 19 20 20 19 17 15 14 13 13 12 12 12 11
6 18 11 13 18 20 18 21 9 8 9 4 11 19 14 15 20 23 32 20 17 4 22 28 25 22 21 20 23 24 25 25 24 24 23 21 21 19 21 19 19 18 17 16 16 15 15 14 14
14 19 17 18 17 16 13 12 16 9 9 8 10 21 16 18 13 13 17 6 13 5 7 25 31 28 25 23 23 24 24 25 26 25 23 24 23 22 20 22 21 21 20 21 19 18 15 14 12
19 15 18 21 21 18 12 18 18 14 10 9 8 15 17 17 15 15 19 13 3 10 7 13 27 29 31 30 26 26 23 22 21 22 22 21 25 25 25 25 23 24 21 19 19 18 17 17 16
9 13 18 14 18 18 16 15 7 20 9 9 7 2 18 22 24 26 17 16 15 21 1 6 23 17 13 24 28 27 25 21 23 25 26 23 25 24 21 25 24 22 22 21 21 20 21 20 18
13 16 14 15 10 8 7 10 20 14 8 9 2 1 6 20 26 23 28 26 26 20 15 6 13 11 12 14 8 21 28 26 29 29 28 25 25 25 17 24 22 20 17 19 19 26 22 17 14
10 8 13 10 7 11 7 14 10 9 9 11 10 5 7 8 18 36 34 31 28 28 22 12 12 18 15 12 11 12 5 18 34 36 33 31 26 25 20 23 19 18 18 15 14 7 9 5 11
7 9 9 7 11 8 14 12 10 9 8 12 12 7 5 7 5 24 33 29 24 21 19 16 14 26 26 15 22 22 17 18 31 34 36 34 30 30 28 20 18 17 15 19 15 5 11 16 18
11 10 11 12 14 13 10 13 11 11 9 9 8 19 9 8 10 21 32 29 24 24 19 17 21 22 19 25 19 19 12 26 57 34 26 32 35 31 31 26 24 22 15 15 11 8 21 22 20
15 16 13 18 15 11 15 9 10 12 10 10 9 9 8 11 9 25 32 31 27 26 23 22 22 21 23 25 29 37 13 10 36 18 26 28 33 28 24 20 25 21 19 13 14 11 15 20 8
19 19 18 11 18 12 10 10 10 11 10 15 14 12 10 7 5 12 19 26 31 31 25 23 24 26 28 30 30 22 19 17 16 42 28 23 26 26 24 19 24 21 17 12 16 17 15 7 4
20 19 16 10 8 4 5 4 5 7 8 9 10 10 11 10 10 8 15 25 30 30 25 27 31 31 29 28 27 29 25 21 20 44 28 12 21 23 20 29 34 16 19 20 22 17 18 12 10
19 20 20 13 6 4 3 6 8 7 12 8 11 10 11 10 9 7 12 15 23 28 25 24 20 22 28 25 30 36 36 27 23 12 16 20 20 20 19 21 19 15 15 12 12 17 17 14 16
17 15 16 10 6 2 8 1 7 5 5 3 6 8 9 9 8 6 16 29 38 35 32 28 23 18 13 10 10 8 11 5 2 3 9 10 14 12 8 16 13 15 19 15 13 11 11 17 20
19 8 7 9 4 5 6 6 7 7 7 5 4 6 9 9 8 8 7 28 16 11 25 22 17 15 13 13 9 7 3 6 5 11 12 15 13 12 16 18 13 15 12 13 14 12 9 13 15
12 6 2 2 4 5 11 10 11 5 7 7 8 8 6 10 9 9 12 12 20 16 10 7 11 17 15 18 18 16 15 15 16 19 22 17 11 8 7 4 5 4 8 10 11 14 15 15 17
10 9 5 8 5 10 13 9 7 8 8 7 6 5 6 9 9 11 14 17 24 27 32 29 28 27 26 26 22 22 21 22 20 19 18 18 16 13 10 9 7 5 4 5 7 9 11 13 17
9 10 8 3 2 2 3 5 7 8 8 8 8 8 10 12 15 16 14 19 23 31 33 33 28 25 26 23 25 23 22 21 20 17 16 16 14 10 11 11 11 12 13 14 17 19 21 21 22
14 9 9 3 6 5 0 5 1 5 7 15 6 12 13 15 15 15 13 17 21 24 23 22 16 19 19 20 18 19 19 18 17 16 17 16 15 14 13 13 13 14 16 17 18 20 22 24 26
7 10 6 4 4 6 4 3 9 4 7 12 15 11 12 11 8 8 10 17 22 24 21 20 15 14 16 17 15 16 16 16 16 16 15 15 16 18 19 19 19 18 17 17 18 21 23 25 26
9 8 7 5 1 3 4 2 5 3 11 18 9 8 7 9 9 7 7 15 18 22 21 21 19 18 18 17 16 15 13 13 13 13 13 14 15 13 12 12 13 15 16 17 18 18 18 20 21
Wind_Direction
285 276 302 283 22 155 252 257 262 282 296 89 347 358 108 71 148 164 258 192 161 160 160 161 160 157 155 154 153 153 150 148 145 141 139 138 135 134 134 132 129 126 124 119 116 115 119 120 120
276 277 288 261 169 257 259 250 260 257 308 116 147 311 68 59 125 188 155 169 166 162 162 162 163 163 161 161 161 159 156 154 151 148 145 145 142 139 138 137 135 132 129 128 125 127 127 126 128
270 239 61 182 204 226 248 258 257 302 348 347 159 249 125 153 176 133 169 159 162 161 163 160 163 166 167 165 166 165 162 160 158 155 152 151 149 145 143 141 139 139 137 139 138 137 135 136 139
255 277 301 232 239 233 234 263 281 287 314 355 322 67 55 129 144 141 147 156 159 160 166 160 163 165 168 172 172 171 168 165 163 160 157 157 156 154 150 148 146 146 149 154 154 152 148 148 152
248 275 228 225 242 257 264 265 282 295 318 191 281 274 134 173 153 137 143 149 158 162 169 163 166 169 170 175 177 176 174 171 168 166 163 163 164 163 160 157 156 158 160 163 164 165 161 162 168
278 156 255 231 251 255 261 266 275 289 300 302 312 333 58 41 98 138 143 143 155 167 173 166 168 171 172 174 177 178 177 176 174 172 169 169 170 171 170 169 169 168 166 171 174 176 175 176 185
211 228 220 256 264 263 249 262 269 267 270 268 360 47 82 19 30 94 132 140 153 165 169 168 170 170 171 174 176 176 178 179 178 176 176 176 176 178 178 177 178 177 176 179 186 186 191 193 201
206 228 261 240 244 260 270 277 273 247 270 288 41 18 201 249 57 80 75 137 155 160 171 170 171 171 171 171 174 175 177 181 182 181 180 182 185 186 186 187 188 188 189 193 195 197 203 206 212
254 233 238 241 242 243 277 273 277 285 228 248 301 93 138 134 86 48 21 30 144 155 168 175 173 172 172 172 173 178 180 182 185 186 187 187 191 192 194 198 200 199 203 204 207 206 214 217 222
205 226 234 245 255 263 270 283 288 315 309 235 251 97 129 132 128 112 359 299 55 158 166 180 185 179 175 174 176 181 184 186 189 190 191 194 196 197 198 201 206 211 213 217 219 220 224 231 235
254 241 244 239 254 266 276 282 297 298 291 269 215 145 138 130 137 148 170 199 353 259 176 179 183 185 180 183 185 185 191 191 193 198 200 198 196 197 202 201 208 214 222 228 229 227 230 239 244
239 240 245 254 260 260 263 282 283 274 257 288 300 146 137 143 144 143 155 154 8 28 255 190 181 178 185 194 192 193 196 196 197 201 204 200 193 202 208 205 209 216 223 231 231 234 231 242 233
229 242 236 238 247 253 267 271 276 283 289 290 18 126 137 138 120 138 166 179 105 320 84 175 182 181 184 195 195 197 204 202 206 205 209 204 197 203 216 211 219 225 228 231 224 232 228 232 232
236 240 245 239 228 236 249 261 297 271 289 301 105 84 156 152 155 154 167 165 153 199 162 126 168 180 187 193 196 196 198 205 211 210 212 206 206 209 221 212 219 227 234 236 231 228 230 231 235
242 254 268 243 238 230 226 260 248 273 288 286 251 207 225 172 156 161 160 175 160 156 157 203 195 200 182 155 169 203 199 211 212 211 210 206 206 209 225 217 228 233 237 233 245 243 247 239 222
255 256 250 258 235 226 187 256 263 257 276 281 275 201 219 187 140 157 157 153 149 148 160 177 221 213 199 190 187 206 288 231 220 214 212 209 200 204 221 218 226 233 244 252 255 268 259 248 268
269 241 244 246 255 232 198 242 251 266 255 257 266 240 212 248 200 141 138 136 139 145 143 155 175 212 196 215 215 220 262 290 268 217 210 209 204 204 209 212 223 239 243 243 246 301 326 292 267
233 227 236 247 228 238 242 229 222 231 243 245 251 262 233 214 219 164 149 147 145 148 140 149 164 185 205 189 211 204 255 262 274 222 213 204 205 207 211 213 218 226 245 251 236 181 232 226 236
244 245 226 230 239 201 230 223 212 213 221 235 244 245 267 237 210 181 172 166 147 150 151 155 167 176 181 181 210 223 179 295 300 241 217 213 206 208 211 215 219 218 231 233 251 236 221 213 208
240 247 253 261 227 205 207 225 223 224 211 210 219 234 238 257 210 177 173 165 162 159 155 157 169 177 191 196 204 211 200 225 229 264 218 212 206 207 207 222 255 239 242 253 237 232 232 219 227
228 242 252 247 289 191 178 267 257 259 218 216 207 204 225 216 235 189 176 176 171 163 161 158 158 166 179 192 184 191 198 173 292 246 235 203 205 210 210 217 229 233 242 246 247 241 238 238 255
226 226 242 258 266 228 164 241 251 238 242 245 240 210 215 229 221 205 159 175 175 180 178 184 159 149 168 166 171 190 196 183 182 189 189 186 187 211 199 216 228 221 226 227 220 230 240 237 238
228 215 214 244 261 204 290 93 256 260 186 175 39 63 13 261 216 175 174 179 196 194 176 167 150 143 143 156 178 184 178 221 332 65 191 209 203 213 226 228 208 211 227 217 222 227 239 229 228
232 219 183 201 203 245 227 234 261 242 215 116 78 76 67 71 60 73 72 194 197 139 155 141 136 135 141 150 146 143 134 134 62 94 125 170 186 202 214 221 221 225 216 226 241 244 252 248 247
209 132 220 227 211 216 223 226 228 178 134 143 140 129 114 100 86 73 66 62 57 63 76 189 149 106 102 99 102 97 106 98 96 84 84 94 88 91 68 115 97 204 242 244 249 254 255 257 261
206 166 159 180 173 228 232 248 272 106 83 91 98 82 32 93 105 85 73 80 72 68 67 60 59 81 86 82 78 74 73 73 66 66 71 71 64 50 37 44 40 24 346 313 300 294 294 287 281
192 201 190 160 220 103 193 144 66 89 92 85 71 25 71 67 72 82 75 66 84 82 74 72 59 62 63 70 63 54 57 59 56 47 47 52 50 22 359 358 344 331 315 306 305 303 300 295 295
186 162 210 201 181 221 277 78 245 40 7 36 59 82 62 55 62 69 74 79 83 91 90 88 68 81 67 62 59 52 40 36 33 24 17 9 357 352 355 351 339 326 318 315 313 309 307 304 296
188 192 189 130 125 170 128 126 359 41 73 54 25 11 90 79 66 75 90 93 94 94 96 98 105 74 73 68 63 60 51 36 27 21 9 0 350 346 343 340 336 333 326 320 313 306 303 300 298
193 180 145 125 247 70 103 91 334 49 118 88 41 342 100 116 121 117 96 93 92 91 87 94 80 70 54 57 62 55 43 32 23 6 359 351 345 345 351 348 343 334 332 333 331 331 329 331 327